Location: Fredericton
(45.9636°N, 66.6431°W)
Time: 20:23:12
(UTC-03:00)

Transit 2A - Visible Passes

Search period start: 28 May 2022 00:00
Search period end: 07 June 2022 00:00
Orbit: 598 x 959 km, 66.7° (Epoch: 28 May)

Date Brightness Start Highest point End Pass type
(mag) Time Alt. Az. Time Alt. Az. Time Alt. Az.
30 May 8.9 04:59:53 10° SE 05:01:57 12° ESE 05:03:57 10° E visible
02 Jun 8.0 04:56:54 10° SSE 05:01:42 26° ESE 05:06:10 10° NE visible
03 Jun 8.4 04:23:39 10° SSE 04:27:33 19° ESE 04:31:15 10° ENE visible
04 Jun 8.6 03:51:07 10° SE 03:53:27 13° ESE 03:55:43 10° E visible
05 Jun 6.8 04:55:56 10° SSW 05:01:38 55° ESE 05:06:51 10° NE visible
06 Jun 7.2 04:22:02 10° S 04:27:24 39° ESE 04:32:21 10° NE visible
